Other Public Products
Issued by NWS Grand Forks, ND

Home | Current Version | Previous Version | Graphics & Text | Print | Product List | Glossary On
Versions: 1 2 3 4 5 6 7 8 9 10 11 12 13 14 15 16 17 18 19 20 21 22 23 24 25 26 27 28 29 30 31 32 33 34 35 36 37 38 39 40 41 42 43 44 45 46 47 48 49 50
000
FPUS83 KFGF 260710
OPUFGF
PRAIRIE TO PINES WEATHER ROUNDUP
NATIONAL WEATHER SERVICE EASTERN NORTH DAKOTA/GRAND FORKS ND
200 AM CDT SAT JUL 26 2014

 **SATELLITE DATA USED TO AUGMENT SKY COVER AT AUTOMATED STATIONS**
 *****  WEATHER ACROSS EASTERN NORTH DAKOTA  *****

CITY           SKY/WX    TMP DP  RH WIND       PRES   REMARKS
GRAND FORKS    CLEAR     61  56  83 SW8       29.77S
GRAND FORKS AF CLEAR     60  59  97 S5        29.78F
GRAND CITY NWS   N/A     61 N/A N/A W2          N/A
BUXTON         NOT AVBL
DEVILS LAKE    CLEAR     64  54  68 S6        29.77F
FARGO          CLEAR     59  55  87 SW3       29.80S
WAHPETON ARPT  SUNNY     57  54  88 S3        29.81F
$$

 *****  WEATHER ACROSS CENTRAL AND WESTERN NORTH DAKOTA  *****

CITY           SKY/WX    TMP DP  RH WIND       PRES   REMARKS
JAMESTOWN      CLEAR     59  56  89 S3        29.82S
BISMARCK       CLEAR     63  53  70 CALM      29.81S
MINOT          CLEAR     61  52  72 NW10      29.79R
MINOT AFB      CLEAR     58  56  95 W7        29.78R
GARRISON         N/A     59  54  83 S5        29.78F
WILLISTON      CLEAR     57  51  80 S8        29.84F
DICKINSON      CLEAR     61  50  67 W5        29.84F
HETTINGER      CLEAR     57  48  72 NW7       29.88R
$$

 *****  OTHER OBSERVATIONS NORTHEAST NORTH DAKOTA  *****

CITY           SKY/WX    TMP DP  RH WIND       PRES   REMARKS
WALHALLA         N/A     59  55  88 CALM        N/A
LANGDON        FAIR      54  52  94 S9        29.78F
CAVALIER       FAIR      63  54  72 SW6       29.75F
GRAFTON        FAIR      55  54  94 SW8       29.76F
CANDO          FAIR      63  59  88 S8        29.77F
FORT TOTTEN      N/A     61  53  75 SE5       29.95
ROLLA          FAIR      55  55 100 S8        29.77F
RUGBY          FAIR      63  55  77 S13       29.75F
 ***** THE ABOVE OBSERVATIONS ARE NON NWS ARE NOT QUALITY
        CONTROLLED AND MAY MIS-REPORT RAIN FOR SNOW...
$$

 *****  OTHER OBSERVATIONS SOUTHEAST NORTH DAKOTA *****

CITY           SKY/WX    TMP DP  RH WIND       PRES   REMARKS
COOPERSTOWN    NOT AVBL
VALLEY CITY    FAIR      57  57 100 CALM      29.82F
OAKES          NOT AVBL
GWINNER        SUNNY     61  61 100 SW7       29.84S
BUFFALO        NOT AVBL
WYNDMERE       NOT AVBL
 ***** THE ABOVE OBSERVATIONS ARE NON NWS ARE NOT QUALITY
       CONTROLLED AND MAY MIS-REPORT RAIN FOR SNOW...
$$

  *****  WEATHER ACROSS NORTHERN MINNESOTA  *****

CITY           SKY/WX    TMP DP  RH WIND       PRES   REMARKS
FLAG ISLAND    CLEAR     64  55  72 W8        29.71S
WARROAD        CLEAR     61  55  82 CALM      29.74F
ROSEAU         CLEAR     59  54  82 SW3       29.75R
HALLOCK        CLEAR     61  55  82 SW3       29.75S
THF RVR FALLS  CLEAR     61  55  82 SW5       29.79F
HALSTAD          N/A     56  54  91 W5          N/A
FOSSTON        CLEAR     54  52  94 S3        29.81S
BAUDETTE       CLEAR     59  54  83 SW3       29.75S
WASKISH        CLEAR     70  61  73 W8        29.76F
CROOKSTON      CLEAR     61  55  82 S3        29.79S
$$
  *****  WEATHER ACROSS CENTRAL AND WEST MINNESOTA  *****

CITY           SKY/WX    TMP DP  RH WIND       PRES   REMARKS
BEMIDJI        CLEAR     58  54  87 CALM      29.80S
PARK RAPIDS    CLEAR     59  57  93 CALM      29.81F
WADENA         CLEAR     57  55  94 CALM      29.82F
DETROIT LAKES  CLEAR     63  59  88 CALM      29.83S
MOORHEAD       CLEAR     63  59  88 CALM      29.81F
FERGUS FALLS   CLEAR     63  55  77 CALM      29.82S
ELBOW LAKE     FAIR      64  59  85 CALM      29.82F
MORRIS MN      FOG       63  63 100 W3        29.83S VSB<1/4
STAPLES        CLEAR     63  61  94 CALM      29.82F
WHEATON        NOT AVBL
$$
  *****  WEATHER ELSEWHERE ACROSS MINNESOTA  *****

CITY           SKY/WX    TMP DP  RH WIND       PRES   REMARKS
DULUTH         CLOUDY    70  67  90 SW10      29.77F
INTRNTL FALLS  CLEAR     62  59  90 W6        29.74R
ELY            CLOUDY    68  64  88 SW5       29.76R
CLOQUET        CLOUDY    70  66  88 SW7       29.78F
BRAINERD       CLEAR     69  64  84 W6        29.81F
HIBBING        CLOUDY    65  63  93 CALM      29.77S FOG
ALEXANDRIA     CLEAR     65  63  93 CALM      29.85F
SAINT CLOUD    CLEAR     71  68  90 NW3       29.81S FOG
MINNEAPOLIS    MOCLDY    75  70  84 CALM      29.80S
$$

  *****  WEATHER ACROSS SOUTH DAKOTA  *****

CITY           SKY/WX    TMP DP  RH WIND       PRES   REMARKS
SIOUX FALLS    MOCLDY    70  68  93 N5        29.86S
BROOKINGS      NOT AVBL
WATERTOWN      FOG       65  65 100 SE3       29.86F VSB 1
HURON          MOCLDY    68  65  90 NE8       29.83F
SISSETON         N/A     61  59  93 CALM      29.83S
ABERDEEN       CLEAR     55  55 100 CALM      29.83F
MITCHELL       PTCLDY    69  67  93 E5        29.84F
PIERRE         CLOUDY    70  69  97 E6        29.81R
MOBRIDGE       PTCLDY    64  60  87 SE9       29.81S
RAPID CITY     CLEAR     63  53  70 N12       29.89R
$$

  *****  SOME WEATHER IN NEARBY STATES *****

CITY           SKY/WX    TMP DP  RH WIND       PRES   REMARKS
GLASGOW MT     CLEAR     60  48  64 W17G26    29.89S
GREAT FALLS MT CLEAR     54  37  52 NW5       30.05R
CHEYENNE WY    PTCLDY    68  47  46 W12       30.13S
SCOTTSBLUFF NE PTCLDY    66  59  78 E8        29.93S
OMAHA NE       MOCLDY    76  71  85 CALM      29.81R
DES MOINES IA  PTCLDY    73  69  87 E7        29.79S
DAVENPORT IA   CLOUDY    68  61  78 SE12      29.84F
CHICAGO IL     CLOUDY    70  57  63 SW9       29.89F
EAU CLAIRE WI  CLOUDY    69  67  93 S7        29.82S
LA CROSSE WI   CLOUDY    68  66  93 S10       29.84F
$$

  *****  SOME NATIONAL WEATHER *****

CITY           SKY/WX    TMP DP  RH WIND       PRES   REMARKS
LA GUARDIA NY  CLOUDY    72  60  66 SW8       29.98F
RALEIGH NC     PTCLDY    70  67  90 CALM      30.01F
ATLANTA GA     PTCLDY    74  67  78 NW3       30.02F
NEW ORLEANS LA MOCLDY    79  75  87 SW6       30.01F
OKLAHOMA CITY  PTCLDY    76  66  71 S7        29.93S
ALBUQUERQUE NM PTCLDY    82  41  23 S7        30.13S
SALT LAKE CITY PTCLDY    77  42  28 SE7       30.01R
LOS ANGELES CA MOCLDY    69  63  81 W7        29.93R
BOISE ID       CLEAR     66  31  27 CALM      30.02R
SEATTLE WA     CLEAR     62  51  67 N12       30.12S
$$

*** WEATHER ACROSS MANITOBA...SASKATCHEWAN AND ONTARIO ***
                ***ONTARIO***

CITY           SKY/WX    TMP DP  RH WIND       PRES   REMARKS
GERALDTON      PTCLDY    59  57  94 CALM      29.73S
THUNDER BAY    MOCLDY    57  57 100 CALM      29.74S
SIOUX LOOKOUT  TSTM      68  64  88 S3        29.67F
TORONTO        PTCLDY    63  54  72 SW5       29.93F
BIG TROUT LK   CLOUDY    52  46  82 E8        29.84S
PICKLE LAKE    NOT AVBL
DRYDEN         MOCLDY    64  63  94 SW7       29.70S
KENORA         PTCLDY    63  61  94 W7        29.72F
$$
                *** MANITOBA***

CITY           SKY/WX    TMP DP  RH WIND       PRES   REMARKS
BRANDON        MOCLDY    66  55  68 SW12G18   29.71S
DAUPHIN        CLOUDY    61  54  77 S3        29.64F
ISLAND LAKE    PTCLDY    57  52  82 E9        29.78S
PILOT MOUND    NOT AVBL
THE PAS        LGT RAIN  63  61  94 E6        29.68S
THOMPSON       PTCLDY    54  50  87 E17       29.86R
WINNIPEG       CLEAR     61  54  77 SW9       29.72R
LYNN LAKE      CLEAR     59  52  77 E8        29.87R
CHURCHILL      FOG       45  45 100 E8        30.06R VSB 1/4
GILLAM         MOCLDY    46  46 100 E13       29.94R
$$
                ***SASKATCHEWAN***

CITY           SKY/WX    TMP DP  RH WIND       PRES   REMARKS
ESTEVAN        CLOUDY    59  54  82 SW14      29.76F
KINDERSLEY     CLOUDY    57  55  94 NW13G23   29.81R
LLOYDMINSTER   MOCLDY    59  57  94 NW10G17   29.81R
PRINCE ALBERT  LGT RAIN  55  55 100 NE7       29.67R
REGINA         MOCLDY    57  52  82 W22G31    29.66F
YORKTON        MOCLDY    61  52  72 S8        29.63F


USA.gov is the U.S. government's official web portal to all federal, state and local government web resources and services.